Location: Unspecified
(0.0000°N, 0.0000°E)
Time: 08:45:03
(UTC+00:00)

N. Korean satellite - Pass Details

Date: 26 April 2017
Orbit: 461 x 518 km, 97.2° (Epoch: 27 June)

Event Time Altitude Azimuth Distance (km) Brightness Sun altitude
Rises 18:32:24 0° 164° (SSE) 2,486 9.9 -8.4°
Reaches altitude 10° 18:34:28 10° 161° (SSE) 1,606 8.9 -8.9°
Maximum altitude 18:37:52 63° 80° (E) 516 6.4 -9.7°
Drops below altitude 10° 18:41:16 10° 358° (N) 1,600 9.4 -10.6°
Sets 18:43:19 0° 354° (N) 2,475 10.4 -11.1°
